Theta_e
320 319 316 317 317 316 316 312 310 307 307 308 307 312 312 314 317 317 316 323 326 324 323 322 322 323 324 324 324 325 325 325 325 323 323 323 322 321
320 317 316 316 315 313 312 310 308 305 302 305 307 308 311 313 316 317 315 323 323 323 323 323 322 321 322 323 323 323 324 324 324 323 323 322 321 321
314 314 313 311 311 310 309 307 306 304 302 305 307 307 307 308 310 311 314 314 316 320 322 322 321 319 320 320 321 321 322 322 322 322 322 322 321 320
312 311 310 315 309 309 307 305 304 303 300 300 304 305 305 307 307 307 311 314 315 319 320 320 319 318 317 317 317 318 318 319 320 320 320 321 321 320
312 311 311 310 306 305 304 302 302 304 302 301 302 305 306 306 306 308 309 310 313 318 318 319 319 318 318 317 316 315 315 315 315 315 317 318 319 320
315 312 312 309 306 304 303 301 302 300 301 302 304 305 306 305 305 304 305 307 307 312 315 317 317 317 317 317 316 316 314 312 311 311 312 312 313 315
313 312 312 312 314 309 304 301 300 299 301 301 301 301 302 303 303 305 304 306 306 308 308 310 308 310 313 316 318 318 314 311 310 309 309 308 308 309
309 310 311 317 313 312 311 311 309 302 300 298 299 300 301 302 306 305 306 305 302 308 306 308 310 310 313 315 315 314 312 311 310 309 308 307 306 306
308 307 308 312 306 303 305 307 308 310 310 303 298 300 302 302 304 302 302 305 304 308 308 307 308 309 311 316 313 311 311 310 308 308 307 306 305 304
307 306 306 304 301 301 300 301 302 303 304 304 302 303 304 304 303 302 302 305 308 308 310 304 304 305 309 312 312 310 309 307 307 307 306 305 304 303
305 305 307 303 302 302 299 299 300 301 307 307 305 304 302 301 303 302 299 299 299 303 307 306 302 306 309 311 313 311 309 307 306 306 305 304 303 302
301 303 305 303 301 299 297 297 296 299 299 299 300 300 302 302 304 302 300 296 298 299 308 306 305 307 304 310 310 310 308 306 305 304 304 304 302 304
299 301 303 301 298 298 298 296 297 301 299 298 297 299 299 302 302 301 300 298 297 300 306 309 305 305 306 306 309 307 306 303 303 302 302 302 301 304
298 299 300 298 297 297 298 299 297 298 297 295 295 297 298 300 301 301 300 300 301 302 305 309 306 306 305 306 306 306 306 305 303 300 300 301 300 301
298 299 298 297 298 300 301 299 299 298 295 293 293 296 299 299 301 299 299 299 300 304 309 311 309 307 306 304 306 306 306 307 306 302 303 305 303 303
301 297 299 298 299 301 299 298 297 297 295 293 295 297 298 298 298 298 296 298 299 304 310 313 311 310 308 308 309 305 306 303 305 305 304 307 306 306
295 296 298 299 298 297 297 296 295 294 294 294 294 295 296 296 296 297 297 298 298 300 303 308 313 313 313 311 305 304 304 304 305 305 305 305 309 310
295 296 297 299 296 296 294 293 293 294 294 292 293 295 295 294 294 295 297 297 297 300 302 306 307 307 308 306 308 304 304 304 305 306 310 308 308 309
296 298 299 298 296 296 295 292 292 293 292 291 291 295 295 294 293 294 295 296 297 300 302 308 306 307 300 300 303 299 304 305 306 306 310 307 304 302
302 302 301 298 297 296 295 294 293 292 291 290 290 290 292 292 292 293 294 295 297 300 302 306 307 308 306 303 302 297 296 301 303 302 302 298 297 300
303 304 304 299 298 297 296 294 293 292 290 291 290 289 289 291 291 293 294 292 294 300 300 302 308 295 307 309 301 301 297 298 301 301 300 299 297 297
306 306 303 302 301 299 295 293 292 291 290 291 289 288 288 289 291 292 294 294 298 299 300 307 310 308 309 308 305 299 295 295 298 299 299 299 297 296
308 304 302 301 302 299 296 293 291 291 290 288 288 287 287 288 290 292 294 295 298 299 301 304 309 310 308 306 301 301 300 295 295 294 294 298 299 299
Wind_Speed
6 6 3 3 4 3 3 1 3 6 7 5 4 6 6 6 9 7 6 12 17 18 17 17 18 19 21 22 22 20 19 18 16 16 16 15 14 12
4 4 4 3 3 3 2 2 2 2 5 3 4 6 7 9 11 11 7 14 16 18 20 19 19 21 21 19 19 20 20 19 18 16 16 16 16 14
4 4 4 3 3 4 4 3 3 2 5 8 7 9 9 11 7 8 9 8 9 18 20 20 18 17 20 21 20 21 21 20 19 18 17 16 16 15
5 4 5 4 5 5 3 4 3 3 3 11 9 8 8 7 9 10 9 8 9 16 20 20 17 17 15 15 15 18 19 18 19 19 17 16 16 16
6 4 4 5 3 1 1 3 3 4 4 5 9 8 7 10 10 10 10 8 6 18 19 19 17 16 17 16 17 18 19 19 18 17 16 16 15 15
6 4 3 4 4 1 2 3 4 5 5 5 8 9 8 9 8 8 10 7 8 9 14 15 13 12 15 17 17 18 20 19 18 17 15 15 13 13
7 5 5 6 7 4 2 4 5 4 4 5 6 8 11 12 11 9 10 9 9 8 8 6 3 4 6 12 16 17 16 17 18 16 15 15 14 13
6 6 5 9 5 2 8 9 9 4 4 3 5 9 11 11 11 11 10 9 9 3 5 11 3 7 6 6 11 12 13 15 17 17 16 15 15 14
6 6 7 3 4 4 7 10 10 11 10 6 6 9 8 9 10 13 13 11 11 9 7 10 3 8 6 7 9 9 12 15 16 16 16 15 14 14
6 7 6 3 2 1 5 6 7 7 7 5 7 10 8 6 9 11 14 13 9 8 6 7 3 5 4 5 10 10 10 14 17 16 15 14 14 14
7 7 1 2 5 6 5 5 7 9 7 11 14 14 13 8 9 10 9 10 10 9 5 4 3 3 3 5 5 13 14 13 16 14 13 14 13 12
5 7 8 7 8 9 6 4 6 11 5 7 6 7 9 7 14 8 8 9 8 8 3 3 2 2 3 2 3 4 2 10 13 13 13 12 10 5
4 5 5 10 10 15 13 5 7 8 7 5 6 6 9 9 10 9 9 8 9 8 11 7 2 2 3 3 3 2 4 3 4 4 7 10 15 10
5 5 6 11 17 17 13 9 11 8 3 4 5 8 9 11 12 12 12 10 9 13 15 11 2 2 2 0 3 0 1 4 4 3 4 4 7 8
4 5 11 15 14 10 9 8 7 4 3 3 5 7 7 11 12 12 12 12 12 13 10 5 3 3 2 2 3 2 3 3 4 4 4 5 4 4
6 6 10 11 10 3 2 4 3 4 3 3 7 8 8 10 10 9 10 10 10 8 8 5 5 3 2 5 4 2 2 4 3 4 4 3 4 4
4 3 4 3 2 1 2 3 3 4 4 4 6 8 9 11 11 10 8 9 8 8 9 7 6 7 6 3 0 1 2 2 3 4 3 4 4 5
3 4 5 4 3 2 1 1 1 4 2 3 6 7 8 10 11 11 9 9 9 9 8 7 4 1 1 1 4 1 1 3 3 4 3 3 2 2
6 5 4 4 4 3 3 3 2 1 1 3 3 6 8 10 11 10 11 9 11 10 10 7 4 3 2 2 2 13 2 1 2 1 2 3 4 3
8 8 6 5 4 4 3 3 2 2 3 4 3 3 5 9 10 10 10 12 11 11 9 8 2 4 4 3 3 2 10 2 1 2 3 3 4 11
9 8 8 5 4 4 1 4 4 1 3 4 2 3 4 7 10 10 10 16 13 9 11 9 7 7 2 4 3 2 4 12 5 4 3 4 4 4
9 10 5 1 3 1 4 4 2 1 3 3 4 3 4 5 9 11 10 11 12 12 12 9 6 4 3 4 4 5 3 1 8 17 14 7 3 4
9 4 2 2 5 3 3 3 2 1 2 3 4 6 4 5 8 10 10 10 11 13 11 8 5 3 4 3 5 5 6 4 2 2 5 10 7 7
Wind_Direction
266 271 260 273 269 282 262 242 256 312 305 302 297 288 293 285 269 270 258 259 267 263 254 249 249 246 242 242 237 233 232 230 233 237 244 233 240 239
292 318 338 319 360 3 22 357 335 306 309 281 300 305 314 311 294 295 286 282 281 273 264 254 247 249 245 238 234 235 228 224 222 224 231 232 233 237
5 34 2 344 30 30 24 12 343 328 309 310 311 307 305 302 313 309 301 289 284 276 270 261 252 246 241 240 232 230 223 221 219 217 220 224 229 236
328 15 344 33 54 41 11 354 299 308 307 306 307 307 303 293 298 299 296 287 283 287 281 265 255 253 237 233 236 236 224 220 216 214 214 217 222 228
326 1 2 94 73 1 333 330 303 306 290 284 298 303 296 307 306 301 295 288 276 293 291 280 255 246 242 238 232 232 218 211 208 206 209 212 216 222
316 334 117 153 165 240 306 289 300 298 290 291 302 306 307 314 297 303 303 302 296 296 286 271 257 249 243 240 233 244 219 205 205 202 204 206 208 215
309 294 181 202 183 188 207 316 310 284 291 292 309 318 326 325 314 309 294 293 299 284 281 285 256 260 259 250 239 233 213 205 203 201 203 204 206 213
304 305 311 240 180 34 355 323 308 295 301 269 305 307 308 320 312 318 295 299 304 263 327 296 244 266 257 242 231 206 208 204 206 199 202 201 202 209
309 317 324 33 80 20 336 314 302 300 291 276 292 299 301 313 330 322 315 306 297 284 280 287 231 263 246 240 217 202 216 218 207 205 199 199 199 205
322 326 318 150 14 336 297 300 291 279 280 285 292 290 276 313 336 310 301 294 293 281 264 274 229 253 246 224 210 224 220 214 205 203 199 197 201 202
324 327 266 222 293 304 277 288 298 289 280 295 300 304 290 306 323 317 313 311 308 304 278 253 260 268 234 217 197 223 229 220 206 195 190 189 199 198
302 301 264 246 270 278 273 289 289 289 300 303 304 304 316 303 323 301 298 304 301 299 264 235 274 288 289 218 186 222 217 206 183 170 182 184 168 172
296 300 286 253 281 306 305 258 249 281 305 301 310 320 330 309 316 317 307 297 293 281 285 274 231 260 246 357 332 205 180 130 116 160 169 172 177 181
285 282 285 307 310 302 301 292 289 315 301 318 325 327 329 325 317 322 315 301 282 274 284 274 248 236 330 340 263 63 115 115 120 168 173 145 175 203
276 274 307 307 300 314 356 24 13 344 315 328 321 325 325 316 314 322 322 314 298 284 280 218 202 217 195 231 320 283 123 185 164 151 156 170 167 170
308 306 291 287 281 272 44 34 358 355 7 329 328 323 321 324 324 329 322 325 316 314 322 249 221 221 257 265 255 226 161 165 161 172 166 177 175 182
311 276 303 304 298 348 20 18 1 0 347 338 330 325 319 331 325 328 318 321 314 311 316 309 241 213 240 217 189 218 158 136 169 153 140 199 201 203
240 245 273 260 225 184 179 302 314 310 338 347 331 322 326 328 325 324 321 323 317 314 311 298 288 159 185 236 46 205 165 176 202 201 181 164 231 231
267 265 245 217 201 209 208 196 235 334 27 308 304 322 331 323 323 325 320 322 320 323 312 289 237 175 204 229 107 38 167 262 199 143 162 152 161 193
283 289 268 202 207 223 223 182 109 54 303 278 285 315 332 323 317 318 321 318 317 319 319 315 237 196 198 199 159 64 29 286 119 112 100 70 60 83
275 277 272 230 213 237 133 125 124 261 278 297 316 318 307 328 313 310 315 313 313 323 325 312 270 212 166 101 88 96 0 10 44 128 127 125 168 171
261 271 226 16 297 29 125 132 139 283 328 345 339 321 297 317 313 309 310 316 323 323 309 297 285 163 160 169 147 139 130 6 48 65 55 61 154 181
257 231 261 59 55 117 169 148 158 319 39 13 324 322 299 309 312 301 301 311 306 313 309 322 315 152 184 147 141 148 153 162 136 54 31 28 68 89